Weather History for Houlton, ME

Change the Weather History Date:

Friday, March 7, 2014

  Actual Average Record
Temperature  
Mean Temperature 12 °F 22 °F  
Max Temperature 37 °F 33 °F 60 °F (1974)
Min Temperature -13 °F 11 °F -26 °F (2003)
Degree Days  
Heating Degree Days 53 43  
Month to date heating degree days 424 309  
Since 1 July heating degree days 7014 6882  
Cooling Degree Days 0 0  
Month to date cooling degree days 0 0  
Year to date cooling degree days 0 0  
Moisture  
Dew Point -2 °F    
Average Humidity 44    
Maximum Humidity 72    
Minimum Humidity 16    
Precipitation  
Precipitation 0.00 in 0.09 in 1.23 in (2011)
Month to date precipitation T 0.58  
Year to date precipitation 5.58 5.44  
Sea Level Pressure  
Sea Level Pressure 30.19 in    
Wind  
Wind Speed 9 mph (SSW)    
Max Wind Speed 24 mph    
Max Gust Speed 32 mph    
Visibility 10 miles    
Events      
T = Trace of Precipitation, MM = Missing Value Source: NWS Daily Summary

Daily Weather History Graph

Daily Weather History Graph

Search for Another Location

Airport:

Trip Planner

Search our weather history database for the weather conditions in past years. The results will help you decide how hot, cold, wet, or windy it might be!

Date:

Astronomy

Mar. 07, 2014 Rise Set
Actual Time 5:59 AM EST 5:25 PM EST
Civil Twilight 5:29 AM EST 5:55 PM EST
Nautical Twilight 4:54 AM EST 6:30 PM EST
Astronomical Twilight 4:19 AM EST 7:05 PM EST
Moon 9:29 AM EST (3/7) No Moon Set
Length of Visible Light 12h 26m
Length of Day
11h 26m
Waxing Crescent, 42% of the Moon is Illuminated
Mar 7
Waxing Crescent
Mar 8
First Quarter
Mar 16
Full
Mar 23
Last Quarter
Mar 30
New

Hourly Weather History & Observations

Time (EST) Temp. Windchill Dew Point Humidity Pressure Visibility Wind Dir Wind Speed Gust Speed Precip Events Conditions
12:53 AM -9.9 °F -19.2 °F -17.0 °F 71% 30.44 in 10.0 mi Variable 3.5 mph - N/A   Clear
1:53 AM -9.9 °F - -16.1 °F 74% 30.43 in 10.0 mi Calm Calm - N/A   Clear
2:53 AM -7.1 °F -21.4 °F -17.0 °F 62% 30.42 in 10.0 mi South 6.9 mph - N/A   Clear
3:53 AM -2.9 °F -15.0 °F -16.1 °F 54% 30.39 in 10.0 mi SW 5.8 mph - N/A   Clear
4:53 AM -9.9 °F -19.2 °F -17.0 °F 71% 30.37 in 10.0 mi SSW 3.5 mph - N/A   Clear
5:53 AM -11.9 °F -23.8 °F -18.9 °F 71% 30.36 in 10.0 mi SW 4.6 mph - N/A   Clear
6:53 AM -7.1 °F - -16.1 °F 65% 30.35 in 10.0 mi Calm Calm - N/A   Clear
7:53 AM 12.9 °F 1.6 °F -9.9 °F 35% 30.34 in 10.0 mi SW 8.1 mph - N/A   Clear
8:53 AM 19.9 °F 10.1 °F -8.0 °F 29% 30.31 in 10.0 mi SSW 8.1 mph - N/A   Clear
9:53 AM 27.0 °F 16.7 °F -11.0 °F 19% 30.28 in 10.0 mi SW 11.5 mph 19.6 mph N/A   Clear
10:53 AM 30.0 °F 17.2 °F -11.0 °F 17% 30.24 in 10.0 mi SW 20.7 mph 25.3 mph N/A   Clear
11:53 AM 32.0 °F 19.2 °F -9.9 °F 16% 30.22 in 10.0 mi SW 23.0 mph 31.1 mph N/A   Clear
12:53 PM 34.0 °F 24.2 °F -6.0 °F 18% 30.15 in 10.0 mi SSW 15.0 mph 26.5 mph N/A   Clear
1:53 PM 36.0 °F 25.6 °F -2.9 °F 19% 30.13 in 10.0 mi SSW 18.4 mph 26.5 mph N/A   Clear
2:53 PM 37.0 °F 28.1 °F 5.0 °F 26% 30.09 in 10.0 mi SSW 15.0 mph 27.6 mph N/A   Clear
3:53 PM 37.0 °F 29.8 °F 7.0 °F 29% 30.06 in 10.0 mi SSW 10.4 mph 20.7 mph N/A   Clear
4:53 PM 35.1 °F 26.9 °F 9.0 °F 34% 30.04 in 10.0 mi SW 11.5 mph - N/A   Clear
5:53 PM 33.1 °F 27.7 °F 9.0 °F 37% 30.03 in 10.0 mi SSW 5.8 mph - N/A   Clear
6:53 PM 30.9 °F 24.3 °F 10.9 °F 43% 30.02 in 10.0 mi SSW 6.9 mph - N/A   Clear
7:53 PM 28.9 °F 20.4 °F 12.0 °F 49% 30.00 in 10.0 mi South 9.2 mph - N/A   Clear
8:53 PM 28.0 °F 18.6 °F 15.1 °F 58% 29.99 in 10.0 mi South 10.4 mph 19.6 mph N/A   Clear
9:53 PM 27.0 °F 18.0 °F 17.1 °F 66% 29.97 in 10.0 mi SSW 9.2 mph 17.3 mph N/A   Clear
10:53 PM 26.1 °F 17.6 °F 18.0 °F 71% 29.94 in 10.0 mi SSW 8.1 mph - N/A   Clear
11:53 PM 24.1 °F 17.0 °F 18.0 °F 77% 29.91 in 10.0 mi South 5.8 mph - N/A   Clear